STARLINK-32889, 62961

Orbit data source: Space-Track

STARLINK-32889, 62961 is a payload satellite owned by SpaceX/Seattle (US) in LEO that was launched on Tue, 11 Feb 2025 UTC via an FALCON 9 launch vehicle from the Air Force Western Test Range (AFWTR). Payload-class satellites include a variety of spacecraft equipped with specific instruments for various scientific and technological missions. These include communications satellites like Starlink; space stations such as the ISS; scientific satellites like the Hubble; Earth observation satellites from companies like Planet Labs, Umbra, and HawkEye 360; GPS; miniature CubeSats for education and research; and military/defense satellites.

Loading next visibility...
Identifier
62961, 2025-029P
Orbit
LEO
Country
Flag of USUS
Related business
Manufacturer
SpaceX/Seattle
Mission
Operational Commercial Communications
Bus & Motor
STARLINK V2M, Unknown motor
Mass
730 kg wet, ~700 kg dry
Launch date (UTC)
2025-02-11 (1 year ago)
Launch vehicle
FALCON 9
Launch site
Air Force Western Test Range (AFWTR)
Object type
Payload
Rocket body
Debris
Shape & HBR
Box + 2 Pan, 17.7 m
Radar Cross Section
33.884 m², Large (>1 m²)

Expand to show TLE details & history
Last TLE update: 1 day ago

TLE from 1 day ago
0 STARLINK-32889
1 62961U 25029P   26170.84412021  .00015782  00000-0  54370-3 0  9995
2 62961  53.1593 118.2627 0001485  95.4187 264.6983 15.30209227 76957
Epoch: 2026-06-19T20:15Z
TLE epoch observation values (Epoch: 2026-06-19T20:15:31.986Z)
Latitude
-0.00002°
Longitude
-93.68786°
Altitude
476.181 km
Speed
7.629 km/s
True Right ascension
07h 53m 03s
True Declination
0° 00' 00"
Sunlit
Object was in daylight at epoch
Visualization orbit readout
Latitude
Unknown
Longitude
Unknown
Altitude
Unknown
Speed
Unknown
Apparent Right ascension
Unknown
Apparent Declination
Unknown
Sunlit
N/A
Visualization observer readout
Local Sidereal Time
08:33:33
Azimuth
Unknown
Elevation
Unknown
Doppler factor
Unknown
Orbital elements
Apogee altitude
476.462 km
Perigee altitude
474.426 km
Semi-major axis
6,853.581 km
Eccentricity
0.00015
Inclination
53.1593°
RAAN
118.2627°
Arg. of periapsis
95.4187°
True anomaly
264.68136°
Mean anomaly
264.6983°
Eccentric anomaly
264.68983°
Mean motion
3.82531 °/min
Orbital period
94.11 mins
BSTAR
0.0005437
Loading maneuver chart data...
Computing Atmospheric mass density...
Loading historical data...
Loading historical data...
Loading historical data...
Loading historical data...
Loading historical data...
Loading historical data...
Loading historical data...

Documentation

Showing up to 5 results
|